Location: Nairn
(57.5833°N, 3.8667°W)
Time: 19:19:38
(UTC+00:00)

Cosmos 1470 - Pass Details

Date: 07 August 2020
Orbit: 520 x 543 km, 82.5° (Epoch: 24 September)

Event Time Altitude Azimuth Distance (km) Brightness Sun altitude
Exits shadow 02:42:00 - 167° (SSE) 2,199 5.5 -10.6°
Reaches altitude 10° 02:43:00 10° 162° (SSE) 1,802 5.1 -10.5°
Maximum altitude 02:46:42 39° 94° (E) 824 4.0 -10.2°
Drops below altitude 10° 02:50:27 10° 25° (NNE) 1,824 7.0 -9.9°
Sets 02:52:43 0° 18° (NNE) 2,723 7.9 -9.7°
